FW8688 Weather Reports


Display with metric or nautical units.
time (UTC)temp
F
wind
direction
speed
MPH
gust
MPH
rain 1hr
in
rain 24hr
in
rain mn
in
humidity
%
barometer
mb
20260506191304 57 343 12.0 22.0 0.00 0.09 0.09 25 1016.2
20260506190804 57 14 12.0 20.0 0.00 0.09 0.09 24 1016.2
20260506190304 57 1 10.0 17.0 0.00 0.09 0.09 25 1016.2
20260506185804 57 30 10.0 18.0 0.00 0.09 0.09 25 1016.2
20260506185306 56 357 13.0 20.0 0.00 0.09 0.09 25 1016.2
20260506184805 56 29 14.0 21.0 0.00 0.09 0.09 24 1016.4
20260506184304 56 1 11.0 17.0 0.00 0.09 0.09 24 1016.4
20260506183304 56 328 12.0 21.0 0.00 0.09 0.09 26 1016.3
20260506182804 56 343 8.0 15.0 0.00 0.09 0.09 28 1016.3
20260506182306 55 356 12.0 21.0 0.00 0.09 0.09 27 1016.5
20260506181805 55 354 12.0 20.0 0.00 0.09 0.09 26 1016.3
20260506181304 55 342 12.0 20.0 0.00 0.09 0.09 26 1016.3
20260506180804 55 329 12.0 23.0 0.00 0.09 0.09 26 1016.2
20260506175804 55 27 10.0 18.0 0.00 0.09 0.09 26 1016.0
20260506175306 55 13 14.0 22.0 0.00 0.09 0.09 26 1016.0
20260506174804 55 354 12.0 20.0 0.00 0.09 0.09 26 1015.8
20260506174304 55 353 10.0 21.0 0.00 0.09 0.09 28 1015.8
20260506173804 55 334 9.0 16.0 0.00 0.09 0.09 28 1015.8
20260506173304 54 19 9.0 18.0 0.00 0.09 0.09 27 1015.8
20260506172804 54 350 12.0 22.0 0.00 0.09 0.09 24 1015.8
20260506172306 54 9 12.0 17.0 0.00 0.09 0.09 24 1015.2
20260506171804 54 338 12.0 21.0 0.00 0.09 0.09 29 1015.2
20260506171304 54 341 11.0 21.0 0.00 0.09 0.09 28 1015.2
20260506170804 54 2 10.0 21.0 0.00 0.09 0.09 28 1015.2
20260506170305 54 358 13.0 20.0 0.00 0.09 0.09 28 1015.2
20260506165804 54 3 13.0 20.0 0.00 0.09 0.09 28 1015.2
20260506165305 53 351 12.0 20.0 0.00 0.09 0.09 28 1015.2
20260506164804 53 10 9.0 17.0 0.00 0.09 0.09 33 1015.2
20260506164305 53 28 10.0 22.0 0.00 0.09 0.09 30 1015.2
20260506163804 53 344 10.0 17.0 0.00 0.09 0.09 33 1015.1
20260506163304 53 355 13.0 20.0 0.00 0.09 0.09 33 1015.1
20260506162804 53 357 10.0 16.0 0.00 0.09 0.09 35 1015.1
20260506162306 52 13 11.0 17.0 0.00 0.09 0.09 35 1014.9
20260506161804 52 4 11.0 20.0 0.01 0.09 0.09 34 1014.9
20260506161305 52 1 13.0 20.0 0.01 0.09 0.09 36 1014.9
20260506160804 52 3 12.0 18.0 0.01 0.09 0.09 36 1014.7
20260506160304 52 15 13.0 21.0 0.01 0.09 0.09 37 1014.7
20260506155804 52 18 10.0 17.0 0.01 0.09 0.09 38 1014.7
20260506155306 52 346 12.0 20.0 0.01 0.09 0.09 39 1014.7
20260506154804 52 0 10.0 20.0 0.01 0.09 0.09 45 1014.7
20260506154304 52 4 12.0 20.0 0.01 0.09 0.09 47 1014.7
20260506153804 52 31 9.0 15.0 0.01 0.09 0.09 46 1014.6
20260506153305 52 1 9.0 15.0 0.01 0.09 0.09 47 1014.6
20260506152804 51 3 9.0 14.0 0.01 0.09 0.09 46 1014.2
20260506152306 51 11 10.0 18.0 0.01 0.09 0.09 46 1014.2
20260506151804 51 357 9.0 15.0 0.00 0.08 0.08 47 1014.2
20260506151305 51 355 9.0 14.0 0.00 0.08 0.08 48 1014.2
20260506150804 51 356 12.0 18.0 0.00 0.08 0.08 50 1014.3
20260506150305 50 7 8.0 13.0 0.00 0.08 0.08 52 1014.1
20260506145306 49 3 5.0 6.0 0.00 0.08 0.08 57 1014.1
20260506144804 49 0 6.0 9.0 0.00 0.08 0.08 57 1014.1
20260506144304 49 340 5.0 9.0 0.00 0.08 0.08 58 1014.1
20260506143804 49 356 7.0 10.0 0.00 0.08 0.08 59 1014.0
20260506143304 48 320 5.0 9.0 0.00 0.08 0.08 59 1014.2
20260506142804 48 323 5.0 7.0 0.00 0.08 0.08 59 1014.1
20260506142306 48 338 5.0 9.0 0.00 0.08 0.08 58 1014.1
20260506141804 48 311 6.0 12.0 0.00 0.09 0.08 58 1014.0
20260506141304 48 338 5.0 10.0 0.00 0.09 0.08 60 1013.9
20260506140803 47 345 3.0 7.0 0.00 0.09 0.08 62 1013.9
20260506140304 47 314 3.0 8.0 0.00 0.09 0.08 63 1013.8
20260506135804 47 336 4.0 10.0 0.00 0.09 0.08 64 1013.7
20260506134804 46 300 6.0 7.0 0.00 0.09 0.08 66 1013.6
20260506134304 46 292 2.0 6.0 0.00 0.09 0.08 68 1013.6
20260506132804 46 244 3.0 5.0 0.00 0.09 0.08 68 1013.2
20260506132307 45 269 1.0 3.0 0.00 0.09 0.08 69 1013.2
20260506131804 45 269 0.0 3.0 0.00 0.09 0.08 70 1013.2
20260506131304 45 278 0.0 3.0 0.00 0.09 0.08 71 1013.2
20260506130804 45 289 1.0 3.0 0.00 0.09 0.08 72 1013.1
20260506130304 44 290 0.0 0.0 0.00 0.09 0.08 73 1013.1
20260506125804 44 254 0.0 0.0 0.00 0.09 0.08 74 1013.0
20260506125306 44 254 1.0 2.0 0.00 0.09 0.08 73 1012.8
20260506124804 44 269 0.0 0.0 0.00 0.09 0.08 73 1012.7
20260506124304 44 269 0.0 0.0 0.00 0.09 0.08 73 1012.5
20260506123304 44 203 1.0 3.0 0.00 0.09 0.08 73 1012.5
20260506122804 44 203 1.0 3.0 0.00 0.09 0.08 72 1012.5
20260506122306 44 305 2.0 3.0 0.00 0.09 0.08 72 1012.6
20260506121306 44 229 0.0 0.0 0.00 0.09 0.08 71 1012.3
20260506120804 45 229 0.0 3.0 0.00 0.09 0.08 71 1012.3
20260506120304 45 267 0.0 1.0 0.00 0.09 0.08 71 1012.3
20260506114304 44 11 3.0 7.0 0.00 0.09 0.08 71 1012.4
20260506113804 44 357 6.0 10.0 0.00 0.09 0.08 71 1012.2
20260506113304 45 347 5.0 9.0 0.00 0.09 0.08 72 1012.2
20260506112804 45 358 6.0 12.0 0.00 0.09 0.08 72 1012.2
20260506112306 45 1 6.0 12.0 0.00 0.09 0.08 76 1011.4
20260506111804 45 354 8.0 15.0 0.00 0.09 0.08 74 1011.4
20260506111304 44 356 7.0 12.0 0.00 0.09 0.08 75 1011.4
20260506110304 44 353 6.0 16.0 0.00 0.09 0.08 77 1011.4
20260506105305 44 357 7.0 12.0 0.00 0.09 0.08 79 1011.4
20260506104804 44 347 7.0 14.0 0.00 0.09 0.08 80 1011.4
20260506103804 44 342 3.0 10.0 0.00 0.09 0.08 82 1011.2
20260506103304 44 48 3.0 9.0 0.00 0.09 0.08 82 1011.1
20260506102804 44 333 7.0 12.0 0.00 0.09 0.08 83 1011.1
20260506102305 45 325 5.0 12.0 0.03 0.09 0.08 83 1010.7
20260506101804 45 299 3.0 6.0 0.04 0.09 0.08 83 1010.7
20260506100804 45 354 5.0 9.0 0.05 0.09 0.08 83 1010.7
20260506100304 46 343 5.0 8.0 0.06 0.09 0.08 83 1010.7
20260506095804 46 349 3.0 7.0 0.07 0.09 0.08 83 1010.5
20260506095305 46 325 5.0 13.0 0.08 0.09 0.08 83 1010.1
20260506094804 47 314 8.0 13.0 0.08 0.09 0.08 82 1010.1
20260506094304 47 346 7.0 12.0 0.08 0.09 0.08 82 1010.1
20260506092803 48 330 3.0 7.0 0.08 0.09 0.08 80 1010.1
20260506092306 49 35 6.0 10.0 0.05 0.06 0.05 80 1010.4
20260506091804 49 24 7.0 13.0 0.04 0.05 0.04 79 1010.1
20260506091304 49 16 8.0 13.0 0.03 0.04 0.03 78 1010.1
20260506090803 50 319 10.0 15.0 0.03 0.04 0.03 75 1010.1
20260506090304 50 316 8.0 15.0 0.02 0.03 0.02 74 1009.1
20260506085803 51 308 7.0 14.0 0.01 0.02 0.01 73 1009.1
20260506085306 51 311 3.0 8.0 0.00 0.01 0.00 72 1008.5
20260506084304 51 303 4.0 7.0 0.00 0.01 0.00 71 1008.4
20260506083804 51 281 6.0 8.0 0.00 0.01 0.00 71 1008.4
20260506083304 51 307 3.0 3.0 0.00 0.01 0.00 70 1008.4
20260506082804 51 281 2.0 3.0 0.00 0.01 0.00 70 1008.2
20260506082305 51 288 3.0 5.0 0.00 0.01 0.00 69 1008.5
20260506081804 51 287 3.0 6.0 0.00 0.01 0.00 68 1008.4
20260506081304 52 294 5.0 6.0 0.00 0.01 0.00 67 1008.4
20260506080804 52 273 6.0 12.0 0.00 0.01 0.00 67 1008.4
20260506080304 53 268 7.0 12.0 0.00 0.01 0.00 64 1008.4
20260506073304 53 324 0.0 3.0 0.00 0.01 0.00 66 1008.6
20260506072804 52 266 0.0 3.0 0.00 0.01 0.00 67 1008.6
20260506071803 52 284 1.0 3.0 0.00 0.01 0.00 68 1008.5
20260506071304 52 236 1.0 3.0 0.00 0.01 0.00 69 1008.5
20260506070804 52 34 0.0 0.0 0.00 0.01 0.00 69 1008.5
20260506070304 51 34 0.0 3.0 0.00 0.01 0.00 70 1008.5
20260506062305 51 188 0.0 0.0 0.00 0.01 0.00 69 1008.2
20260506061804 51 188 0.0 3.0 0.00 0.01 0.00 69 1008.2
20260506061304 51 185 2.0 3.0 0.00 0.01 0.00 69 1008.2
20260506060804 50 172 1.0 2.0 0.00 0.01 0.00 69 1008.2
20260506060304 50 132 0.0 0.0 0.00 0.01 0.00 69 1008.2
20260506051304 50 132 0.0 0.0 0.00 0.01 0.01 68 1007.1
20260506050803 50 132 0.0 0.0 0.00 0.01 0.01 68 1007.1
20260506050304 50 132 0.0 0.0 0.00 0.01 0.01 68 1007.0
20260506044806 50 132 1.0 2.0 0.00 0.01 0.01 67 1007.1
20260506044306 51 132 0.0 0.0 0.00 0.01 0.01 66 1007.1
20260506043806 51 132 0.0 0.0 0.00 0.01 0.01 66 1007.1
20260506043306 51 132 0.0 0.0 0.00 0.01 0.01 66 1007.1
20260506041805 52 111 0.0 2.0 0.00 0.01 0.01 65 1007.0
20260506041306 52 111 2.0 3.0 0.00 0.01 0.01 65 1007.0
20260506040305 52 92 0.0 0.0 0.00 0.01 0.01 64 1007.0
20260506035805 53 92 0.0 0.0 0.00 0.01 0.01 63 1007.0
20260506035306 53 92 0.0 3.0 0.00 0.01 0.01 63 1007.0
20260506034806 53 92 1.0 3.0 0.00 0.01 0.01 63 1006.9
20260506034305 53 97 2.0 5.0 0.00 0.01 0.01 62 1006.9
20260506033805 53 96 1.0 3.0 0.00 0.01 0.01 62 1006.9
20260506033305 54 86 0.0 0.0 0.00 0.01 0.01 61 1006.9
20260506031805 54 86 1.0 2.0 0.00 0.01 0.01 61 1006.8
20260506031305 54 86 1.0 3.0 0.00 0.01 0.01 61 1006.8
20260506030805 54 86 2.0 3.0 0.00 0.01 0.01 60 1006.6
20260506030306 54 86 2.0 3.0 0.00 0.01 0.01 60 1006.6
20260506025805 55 101 2.0 3.0 0.00 0.01 0.01 60 1006.6
20260506025306 55 111 0.0 0.0 0.00 0.01 0.01 59 1006.6
20260506024306 55 140 0.0 0.0 0.00 0.01 0.01 58 1006.5
20260506023805 56 140 0.0 0.0 0.00 0.01 0.01 58 1006.4
20260506023305 56 140 0.0 0.0 0.00 0.01 0.01 58 1006.3
20260506022805 56 140 1.0 3.0 0.00 0.01 0.01 57 1006.3
20260506021805 56 153 2.0 3.0 0.00 0.01 0.01 57 1006.1
20260506021305 56 130 2.0 3.0 0.00 0.01 0.01 57 1006.1
20260506020305 57 155 2.0 6.0 0.00 0.01 0.01 57 1006.0
20260506015805 57 171 5.0 8.0 0.00 0.01 0.01 56 1006.0
20260506015306 57 166 3.0 7.0 0.00 0.01 0.01 55 1006.2
20260506014805 57 168 5.0 8.0 0.00 0.01 0.01 53 1006.2
20260506014306 57 170 6.0 8.0 0.00 0.01 0.01 53 1006.2
20260506013805 57 168 5.0 8.0 0.00 0.01 0.01 52 1006.2
20260506013305 57 162 6.0 8.0 0.00 0.01 0.01 53 1006.2
20260506012805 58 170 5.0 7.0 0.00 0.01 0.01 52 1006.2
20260506012307 58 179 6.0 12.0 0.00 0.01 0.01 52 1006.2
20260506011805 58 182 6.0 9.0 0.00 0.01 0.01 51 1006.1
20260506011305 58 170 5.0 7.0 0.00 0.01 0.01 50 1006.1
20260506010805 59 166 3.0 7.0 0.00 0.01 0.01 49 1006.1
20260506010305 59 165 5.0 9.0 0.00 0.01 0.01 48 1006.1
20260506005805 59 164 3.0 8.0 0.00 0.01 0.01 48 1006.1
20260506005306 59 156 2.0 5.0 0.00 0.01 0.01 48 1006.0
20260506004805 59 160 4.0 7.0 0.00 0.01 0.01 47 1006.0
20260506004305 59 146 5.0 9.0 0.00 0.01 0.01 46 1006.0
20260506003305 60 170 5.0 6.0 0.00 0.01 0.01 46 1006.0
20260506002306 60 177 3.0 6.0 0.00 0.01 0.01 46 1006.0
20260506001805 60 155 3.0 6.0 0.00 0.01 0.01 48 1006.0
20260506001305 60 171 2.0 7.0 0.00 0.01 0.01 47 1006.0
20260506000805 60 170 4.0 6.0 0.00 0.01 0.01 47 1006.0
20260505235805 59 141 4.0 8.0 0.00 0.01 0.01 47 1005.8
20260505235305 59 168 3.0 6.0 0.00 0.01 0.01 47 1006.2
20260505234805 59 160 5.0 8.0 0.00 0.01 0.01 47 1006.2
20260505234305 59 189 4.0 7.0 0.00 0.01 0.01 47 1006.2
20260505233805 59 174 3.0 7.0 0.00 0.01 0.01 49 1006.4
20260505233305 58 198 1.0 3.0 0.00 0.01 0.01 51 1006.4
20260505232805 57 204 4.0 6.0 0.00 0.01 0.01 51 1006.4
20260505231805 57 231 3.0 6.0 0.00 0.01 0.01 52 1006.4
20260505231306 57 198 4.0 6.0 0.00 0.01 0.01 52 1006.5
20260505230805 57 226 3.0 5.0 0.00 0.01 0.01 52 1006.7
20260505230305 57 181 2.0 3.0 0.00 0.01 0.01 53 1006.7
20260505225805 56 212 2.0 3.0 0.00 0.01 0.01 54 1006.7
20260505225306 57 169 2.0 3.0 0.00 0.01 0.01 54 1006.7
20260505224806 57 128 1.0 3.0 0.00 0.01 0.01 54 1006.7
20260505224305 57 88 1.0 2.0 0.00 0.01 0.01 53 1006.8
20260505223805 57 88 0.0 3.0 0.00 0.01 0.01 52 1006.8
20260505223305 57 119 0.0 3.0 0.00 0.01 0.01 54 1006.9
20260505222805 57 216 1.0 3.0 0.00 0.01 0.01 52 1006.9
20260505222306 57 174 1.0 2.0 0.00 0.01 0.01 50 1006.9
20260505221305 57 138 0.0 0.0 0.00 0.01 0.01 50 1007.0
20260505220805 57 197 0.0 3.0 0.00 0.01 0.01 50 1006.9
20260505220305 56 164 2.0 5.0 0.00 0.01 0.01 51 1007.1
20260505215805 56 170 3.0 5.0 0.00 0.01 0.01 51 1007.1
20260505215306 56 164 3.0 5.0 0.00 0.01 0.01 52 1007.1
20260505214805 56 170 3.0 6.0 0.00 0.01 0.01 52 1007.1
20260505214304 56 166 5.0 8.0 0.00 0.01 0.01 52 1007.2
20260505213805 56 153 3.0 6.0 0.00 0.01 0.01 52 1007.2
20260505213305 56 168 4.0 7.0 0.00 0.01 0.01 52 1007.2
20260505212805 56 159 5.0 7.0 0.00 0.01 0.01 50 1007.3
20260505212306 57 170 5.0 7.0 0.00 0.01 0.01 49 1007.4
20260505211805 57 163 4.0 7.0 0.00 0.01 0.01 48 1007.4
20260505211305 57 141 2.0 6.0 0.00 0.01 0.01 48 1007.2
20260505210805 57 162 4.0 6.0 0.00 0.01 0.01 48 1007.2
20260505210305 57 164 5.0 7.0 0.00 0.01 0.01 48 1007.2
20260505205805 57 163 3.0 7.0 0.00 0.01 0.01 48 1007.2
20260505205305 57 187 4.0 7.0 0.00 0.01 0.01 48 1007.3
20260505204805 57 131 5.0 7.0 0.00 0.01 0.01 47 1007.3
20260505204306 57 174 5.0 8.0 0.00 0.01 0.01 48 1007.4
20260505203805 57 185 5.0 8.0 0.00 0.01 0.01 48 1007.4
20260505203306 57 108 3.0 6.0 0.00 0.01 0.01 49 1007.4
20260505202805 58 92 5.0 9.0 0.00 0.01 0.01 49 1007.4
20260505201305 57 129 5.0 9.0 0.00 0.01 0.01 51 1007.3
20260505195805 55 118 6.0 10.0 0.00 0.01 0.01 51 1007.3
20260505194805 55 145 5.0 9.0 0.00 0.01 0.01 53 1007.6
20260505194306 55 161 3.0 8.0 0.00 0.01 0.01 54 1007.6
20260505193305 55 128 3.0 9.0 0.00 0.01 0.01 55 1007.7
20260505192805 55 155 5.0 9.0 0.00 0.01 0.01 55 1007.8
20260505192306 54 137 5.0 10.0 0.00 0.01 0.01 55 1007.8